Torna al catalogo

NOAA 16 DEB

AttivoPO
NORAD 41430·DEBRIS·🇺🇸 United States

Lanciato Sep 21, 2000 da Vandenberg Space Force Base

Loading…

Prossimi Passaggi (prossime 24 ore)

TLE

AggiornatoSource: Space-Track

Epoca: Sep 13, 2026, 01:47 UTC

1 41430U 00055LK  26256.07442704  .00003400  00000-0  85762-3 0  9999
2 41430  98.9930 119.8791 0029632 237.4426 122.3905 14.51551096554898

Traccia NOAA 16 DEB in tempo reale con AllMySat

Download on the App Store